• Join FlightAware (Why Join?)
  • Login
  • US Flag 
03:39AM EDT


 

Airport Tracker/Info


-or-


 

Live Flight TrackerFlight Track Log ✈ N40BZ ✈ 27-Jul-2013 ✈ CND4 - KBUF

Flight Track Log - Related Links

Times and Time Zones

All times are in EDT time to prevent confusion due to time zone crossing. See the N40BZ flight status page for this flight to view local times or setup timezone preferences in your user account.

Time Position Orientation Groundspeed Altitude Reporting Facility
EDT Latitude Longitude Course Direction KTS MPH feet Rate Location/Type
04:09PM 44.7667 -78.6000 180° South 170 196 6,900  Level Toronto Center
04:10PM 44.7167 -78.6000 180° South 170 196 6,900  Level Toronto Center
04:11PM 44.6833 -78.6000 180° South 160 184 7,000  Climbing Toronto Center
04:12PM 44.6333 -78.6000 180° South 160 184 7,000  Level Toronto Center
04:14PM 44.5500 -78.6000 180° South 160 184 7,000  Level Toronto Center
04:15PM 44.5000 -78.6000 180° South 160 184 7,000  Level Toronto Center
04:16PM 44.4500 -78.6000 180° South 160 184 7,000  Level Toronto Center
04:17PM 44.4167 -78.6000 180° South 160 184 7,000  Level Toronto Center
04:18PM 44.3667 -78.6000 180° South 150 173 7,000  Level Toronto Center
04:19PM 44.3333 -78.6333 216° Southwest 160 184 7,000  Level Toronto Center
04:20PM 44.2833 -78.6333 180° South 160 184 7,000  Level Toronto Center
04:21PM 44.2500 -78.6333 180° South 150 173 7,000  Level Toronto Center
04:22PM 44.2000 -78.6333 180° South 150 173 7,000  Level Toronto Center
04:23PM 44.1500 -78.6333 180° South 150 173 7,000  Level Toronto Center
04:24PM 44.1167 -78.6333 180° South 150 173 7,000  Level Toronto Center
04:25PM 44.0667 -78.6500 193° South 160 184 7,000  Level Toronto Center
04:26PM 44.0333 -78.6667 200° South 160 184 7,000  Level Toronto Center
04:27PM 43.9833 -78.6833 193° South 160 184 7,000  Level Toronto Center
04:28PM 43.9500 -78.7000 200° South 160 184 7,000  Level Toronto Center
04:29PM 43.9000 -78.7333 206° Southwest 160 184 7,000  Level Toronto Center
04:30PM 43.8667 -78.7500 200° South 160 184 7,000  Level Toronto Center
04:31PM 43.8167 -78.7500 180° South 160 184 7,000  Level Toronto Center
04:32PM 43.7833 -78.7833 216° Southwest 160 184 7,000  Level Toronto Center
04:33PM 43.7333 -78.8000 194° South 160 184 7,000  Level Toronto Center
04:34PM 43.7000 -78.8000 180° South 150 173 7,000  Level Toronto Center
04:35PM 43.6500 -78.8000 180° South 150 173 7,000  Level Toronto Center
04:36PM 43.6167 -78.8000 180° South 150 173 7,000  Level Toronto Center
04:37PM 43.5667 -78.8000 180° South 150 173 7,000  Level Toronto Center
04:38PM 43.5167 -78.7833 166° South 150 173 7,000  Level Toronto Center
04:39PM 43.4833 -78.7833 180° South 150 173 7,000  Level Toronto Center
04:40PM 43.4500 -78.7833 180° South 150 173 7,000  Level Toronto Center
04:41PM 43.4000 -78.7833 180° South 150 173 7,100  Climbing Toronto Center
04:42PM 43.3667 -78.7667 160° South 150 173 7,100  Level Toronto Center
04:43PM 43.3167 -78.7667 180° South 150 173 7,100  Level Toronto Center
04:44PM 43.2833 -78.7667 180° South 150 173 7,100 -540 Level Toronto Center
04:45PM 43.2333 -78.7667 180° South 160 184 6,100 -600 Descending Toronto Center
04:46PM 43.2000 -78.7833 200° South 160 184 5,900 -540 Descending Toronto Center
04:47PM 43.1500 -78.7833 180° South 160 184 5,100 -600 Descending Toronto Center
04:48PM 43.1167 -78.8167 216° Southwest 160 184 4,800 -600 Descending Toronto Center
04:49PM 43.0667 -78.8333 194° South 170 196 4,000 -600 Descending Toronto Center
04:50PM 43.0333 -78.8500 200° South 160 184 3,700 -480 Descending Toronto Center
04:52PM 42.9667 -78.8333 170° South 180 207 2,600 -780 Descending Toronto Center
04:53PM 42.9667 -78.7667 90° East 170 196 1,500 -780 Descending Toronto Center
04:54PM 42.9500 -78.7333 124° Southeast 93 107 800 -540 Descending Buffalo TRACON